This demonstration page uses our WeatherBlox Daily Observations layout. Learn more.

Left ArrowRight Arrow

38.89511, -77.03637

Hourly Observations for May 5, 2017

Temp ( °F °C ) Dew Point ( °F °C ) Humidity (%) Winds ( mph kmh ) Pressure ( in mb ) Visibility ( mi km ) Precip ( " mm )
12:45 am 00:45 Cloudy 58 14.4 55 12.8 90 90 E 12 19 29.88 1012 10 16 0.03 0.76
12:52 am 00:52 Cloudy 58 14.4 55 12.8 90 90 ESE 9 15 29.88 1012 10 16 0.03 0.76
1:21 am 01:21 Cloudy 58 14.4 56 13.3 93 93 E 9 15 29.88 1012 10 16 0.00 0.00
1:36 am 01:36 Cloudy 59 15 55 13 88 88 E 6 9 29.85 1011 10 16 0.00 0.00
1:52 am 01:52 Cloudy 59 15 56 13.3 90 90 E 10 17 29.84 1010 10 16 0.00 0.00
2:52 am 02:52 Cloudy 60 15.6 56 13.3 86 86 ESE 14 22 29.79 1009 10 16 0.00 0.00
3:52 am 03:52 Cloudy 61 16.1 57 13.9 87 87 E 8 13 29.76 1008 10 16 0.00 0.00
4:52 am 04:52 Cloudy with Heavy Rain 61 16.1 58 14.4 90 90 E 12 19 29.71 1006 4 6 0.09 2.29
5:17 am 05:17 Cloudy with Rain 61 16.1 59 15 93 93 E 10 17 29.68 1005 7 11 0.15 3.81
5:52 am 05:52 Cloudy with Rain 62 16.7 60 15.6 93 93 E 14 22 29.65 1004 6 10 0.28 7.11
5:55 am 05:55 Cloudy with Rain 62 16.7 60 15.6 93 93 E 14 22 29.65 1004 5 8 0.00 0.03
6:03 am 06:03 Cloudy with Rain 63 17 61 16 94 94 E 14 22 29.65 1004 3 4 0.00 0.00
6:13 am 06:13 Cloudy with Rain 62 16.7 61 16.1 96 96 E 18 30 29.62 1003 5 8 0.11 2.79
6:52 am 06:52 Cloudy with Heavy Rain 63 17.2 62 16.7 97 97 E 9 15 29.60 1003 3 4 0.30 7.62
7:01 am 07:01 Cloudy with Light Rain 64 17.8 62 16.7 93 93 ESE 15 24 29.59 1002 5 8 0.04 1.02
7:52 am 07:52 Cloudy with Rain 65 18.3 64 17.8 97 97 ESE 18 30 29.56 1001 4 6 0.10 2.54
8:13 am 08:13 Cloudy with Nearby Thunderstorms 66 18.9 64 17.8 93 93 ESE 17 28 29.53 1000 4 6 0.04 1.02
8:25 am 08:25 Cloudy with Nearby Thunderstorms 65 18.3 64 17.8 97 97 ESE 20 31 29.53 1000 2 3 0.12 3.05
8:32 am 08:32 Cloudy with Nearby Thunderstorms 64 18 64 18 100 100 ESE 15 24 29.53 1000 2 3 0.00 0.00
8:40 am 08:40 Cloudy with Nearby Thunderstorms 66 19 64 18 94 94 ESE 14 22 29.53 1000 3 4 0.00 0.00
8:46 am 08:46 Cloudy with Heavy Rain 64 18 64 18 100 100 ESE 16 26 29.53 1000 2 3 0.00 0.00
8:52 am 08:52 Cloudy with Rain 66 18.9 65 18.3 96 96 SE 15 24 29.56 1001 2 3 0.30 7.62
8:57 am 08:57 Cloudy with Heavy Rain 66 18.9 65 18.3 96 96 W 18 30 29.56 1001 3 4 0.03 0.76
8:59 am 08:59 Cloudy with Heavy Rain 66 18.9 65 18.3 96 96 WSW 23 37 29.59 1002 2 3 0.06 1.52
9:04 am 09:04 Cloudy with Heavy Rain 66 19 64 18 94 94 W 8 13 29.56 1001 1 1 0.00 0.00
9:11 am 09:11 Cloudy with Rain 66 18.9 66 18.9 100 100 S 5 7 29.56 1001 2 3 0.30 7.62
9:15 am 09:15 Cloudy with Rain 66 18.9 65 18.3 96 96 S 5 7 29.56 1001 4 6 0.31 7.87
9:52 am 09:52 Partly Cloudy 67 19.4 66 18.9 97 97 SE 9 15 29.51 999 10 16 0.41 10.41
10:07 am 10:07 Cloudy 66 18.9 65 18.3 96 96 SSE 16 26 29.53 1000 10 16 0.00 0.00
10:52 am 10:52 Cloudy 66 18.9 64 17.8 93 93 S 12 19 29.54 1001 10 16 0.00 0.00
11:52 am 11:52 Cloudy 67 19.4 64 17.8 91 91 SSE 8 13 29.53 1000 10 16 0.00 0.00
12:41 pm 12:41 Cloudy 69 20.6 65 18.3 87 87 S 8 13 29.50 999 10 16 0.00 0.00
12:52 pm 12:52 Cloudy 69 20.6 66 18.9 90 90 S 8 13 29.49 999 10 16 0.00 0.00
1:40 pm 13:40 Cloudy 70 21 66 19 88 88 S 16 26 29.50 999 10 16 0.00 0.00
1:52 pm 13:52 Cloudy 70 21.1 66 18.9 87 87 S 12 19 29.49 999 10 16 0.00 0.03
2:52 pm 14:52 Cloudy 73 22.8 68 20 84 84 SSE 15 24 29.46 998 10 16 0.00 0.00
3:39 pm 15:39 Cloudy 75 23.9 68 20 79 79 S 17 28 29.44 997 10 16 0.00 0.00
3:47 pm 15:47 Cloudy 75 24 66 19 74 74 S 15 24 29.44 997 10 16 0.00 0.00
3:52 pm 15:52 Cloudy 74 23.3 66 18.9 76 76 SSE 23 37 29.43 997 10 16 0.00 0.00
4:25 pm 16:25 Cloudy 75 23.9 66 18.9 74 74 S 20 31 29.44 997 10 16 0.00 0.00
4:34 pm 16:34 Cloudy 73 23 66 19 78 78 S 20 31 29.41 996 10 16 0.00 0.00
4:48 pm 16:48 Cloudy 73 23 64 18 74 74 SSE 22 35 29.44 997 10 16 0.00 0.00
4:52 pm 16:52 Cloudy 74 23.3 65 18.3 74 74 S 20 31 29.42 996 10 16 0.00 0.00
5:52 pm 17:52 Cloudy 73 22.8 65 18.3 76 76 SSE 21 33 29.41 996 10 16 0.00 0.00
6:08 pm 18:08 Cloudy 72 22 64 18 78 78 SSE 15 24 29.41 996 10 16 0.00 0.00
6:48 pm 18:48 Cloudy 72 22 64 18 78 78 SSE 12 19 29.38 995 10 16 0.00 0.00
6:52 pm 18:52 Cloudy 72 22.2 65 18.3 79 79 SSE 14 22 29.39 995 10 16 0.00 0.00
6:58 pm 18:58 Cloudy 72 22 64 18 78 78 SE 17 28 29.38 995 10 16 0.00 0.00
7:52 pm 19:52 Cloudy 71 21.7 65 18.3 81 81 SE 15 24 29.39 995 10 16 0.00 0.00
8:52 pm 20:52 Cloudy with Light Rain 69 20.6 66 18.9 90 90 SE 13 20 29.38 995 10 16 0.00 0.03
8:57 pm 20:57 Cloudy with Light Rain 69 20.6 66 18.9 90 90 SSE 13 20 29.38 995 10 16 0.00 0.03
9:52 pm 21:52 Cloudy with Light Rain 68 20 66 18.9 93 93 S 14 22 29.38 995 10 16 0.00 0.03
9:55 pm 21:55 Cloudy with Light Rain 68 20 66 18.9 93 93 SSE 16 26 29.38 995 10 16 0.00 0.03
10:06 pm 22:06 Cloudy with Rain 66 19 64 18 94 94 SSE 18 30 29.38 995 3 4 0.00 0.00
10:11 pm 22:11 Cloudy with Rain 66 18.9 64 17.8 93 93 SE 16 26 29.38 995 6 10 0.12 3.05
10:16 pm 22:16 Cloudy with Rain 66 19 64 18 94 94 SE 15 24 29.38 995 10 16 0.00 0.00
10:34 pm 22:34 Cloudy with Light Rain 66 19 64 18 94 94 SSE 7 11 29.38 995 10 16 0.00 0.00
10:47 pm 22:47 Cloudy with Heavy Rain 66 19 64 18 94 94 WSW 8 13 29.38 995 3 4 0.18 4.57
10:52 pm 22:52 Cloudy with Rain 65 18.3 64 17.8 97 97 WSW 5 7 29.38 995 5 8 0.27 6.86
11:06 pm 23:06 Cloudy 66 19 64 18 94 94 SW 3 6 29.38 995 10 16 0.00 0.00
11:35 pm 23:35 Cloudy 66 18.9 64 17.8 93 93 Calm 29.38 995 10 16 0.00 0.03
11:52 pm 23:52 Cloudy 66 18.9 64 17.8 93 93 S 3 6 29.36 994 10 16 0.00 0.03

Powered by AerisWeather